This is the latest recevied weather packets stored in our database for station/object K0CVS. If no packets are shown the sender has not sent any weather packets the latest 10 day(s).
| Time | Temp. | Humidity | Pressure | Rain* | Wind** | Luminosity | Snow |
|---|---|---|---|---|---|---|---|
| 1778010339 | 9.44° C | 82% | 1012.2 hPa | 1.27 mm | - | 59 W/m² | - |
| 1778010034 | 9.44° C | 82% | 1012.3 hPa | 0 mm | - | 85 W/m² | - |
| 1778009731 | 9.44° C | 85% | 1012.5 hPa | 0 mm | - | 104 W/m² | - |
| 1778009428 | 9.44° C | 85% | 1012.3 hPa | 0 mm | - | 92 W/m² | - |
| 1778009127 | 9.44° C | 83% | 1012.4 hPa | 0 mm | - | 91 W/m² | - |
| 1778008824 | 9.44° C | 83% | 1012.3 hPa | 0 mm | - | 102 W/m² | - |
| 1778008522 | 9.44° C | 85% | 1012.3 hPa | 0 mm | - | 104 W/m² | - |
| 1778008220 | 9.44° C | 85% | 1012.4 hPa | 0 mm | - | 71 W/m² | - |
| 1778007914 | 8.89° C | 83% | 1012.3 hPa | 0 mm | - | 93 W/m² | - |
| 1778007611 | 8.89° C | 85% | 1012.4 hPa | 0 mm | - | 97 W/m² | - |
| 1778007308 | 9.44° C | 84% | 1012.5 hPa | 0 mm | - | 109 W/m² | - |
| 1778007004 | 8.89° C | 82% | 1012.4 hPa | 0 mm | - | 100 W/m² | - |
| 1778006701 | 8.89° C | 82% | 1012.3 hPa | 0 mm | - | 124 W/m² | - |
| 1778006397 | 9.44° C | 86% | 1012.2 hPa | 0 mm | - | 134 W/m² | - |
| 1778006095 | 9.44° C | 88% | 1012.6 hPa | 0 mm | - | 116 W/m² | - |
| 1778005791 | 8.89° C | 89% | 1012.7 hPa | 0 mm | - | 114 W/m² | - |
| 1778005488 | 8.89° C | 88% | 1012.7 hPa | 0 mm | - | 113 W/m² | - |
| 1778005184 | 8.89° C | 87% | 1013.1 hPa | 0 mm | - | 87 W/m² | - |
| 1778004882 | 8.89° C | 87% | 1013 hPa | 0 mm | - | 120 W/m² | - |
| 1778004579 | 8.89° C | 87% | 1013 hPa | 0 mm | - | 110 W/m² | - |
| 1778004275 | 8.89° C | 88% | 1013.2 hPa | 0 mm | - | 97 W/m² | - |
| 1778003972 | 8.89° C | 89% | 1013.1 hPa | 0 mm | - | 80 W/m² | - |
| 1778003668 | 8.89° C | 88% | 1013.1 hPa | 1.78 mm | - | 69 W/m² | - |
| 1778003364 | 8.33° C | 88% | 1013.1 hPa | 1.78 mm | - | 88 W/m² | - |
| 1778003062 | 8.33° C | 87% | 1013.4 hPa | 0 mm | - | 80 W/m² | - |
* Rain latest hour (hover to see other rain measurements)
** Current wind speed in m/s (hover to see current wind gust speed)